User: anonymous   Login
Location: *
(51.0333°S, 178.4667°E)
Time: 18:30:26
(UTC+00:00)
Language:

Cosmos 1818 - Orbit

View from above orbital plane
View from above orbital plane
View from above satellite
View from above satellite

Ground track
Ground track

The orbit data is extracted from the following two-line orbital elements,

1 17369U 87011A   20024.86802125 -.00000086  00000-0  55335-5 0  9994
2 17369  65.0121 308.3259 0013808 257.8695 102.0843 14.31452033774849
Epoch (UTC): 24 January 2020 20:49:57
Eccentricity: 0.0013808
inclination: 65.0121°
perigee height: 777 km
apogee height: 797 km
right ascension of ascending node: 308.3259°
argument of perigee: 257.8695°
revolutions per day: 14.31452033
mean anomaly at epoch: 102.0843°
orbit number at epoch: 77484

The dashed part of the orbit path shows where the satellite is in the earth's shadow,  

DLR